Fort Eustis, VA

12:31 AM EST on December 13, 2019 (GMT -0500)
Felker Army Air Field

Weather History for KFAF - October, 2019

Change the Weather History Date:

Saturday, October 12, 2019

  Actual Average Record
Temperature  
Mean Temperature 66 °F -  
Max Temperature 79 °F 69 °F 84 °F (2010)
Min Temperature 53 °F 52 °F 44 °F (1996)
Growing Degree Days 16 (Base 50)    
Moisture  
Dew Point 55 °F    
Average Humidity 71    
Maximum Humidity 91    
Minimum Humidity 40    
Precipitation  
Precipitation 0.00 in - - ()
Sea Level Pressure  
Sea Level Pressure 29.99 in    
Wind  
Wind Speed 1 mph ()    
Max Wind Speed 7 mph    
Max Gust Speed -    
Visibility 10.0 miles    
Events      
Averages and records for this station are not official NWS values.
T = Trace of Precipitation, MM = Missing Value Source: Averaged Metar Reports

Daily Weather History Graph

Daily Weather History Graph

Search for Another Location

Airport or City:

Astronomy

Oct. 12, 2019 Rise Set
Actual Time 7:11 AM EDT 6:34 PM EDT
Civil Twilight 6:45 AM EDT 7:00 PM EDT
Nautical Twilight 6:14 AM EDT 7:30 PM EDT
Astronomical Twilight 5:44 AM EDT 8:00 PM EDT
Moon 6:26 PM EDT (10/12) 5:50 AM EDT (10/12)
Length of Visible Light 12h 15m
Length of Day
11h 22m
Waxing Gibbous, 99% of the Moon is Illuminated
Oct 12
Waxing Gibbous
Oct 13
Full
Oct 21
Last Quarter
Oct 27
New
Nov 4
First Quarter

Hourly Weather History & Observations

Time (EDT) Temp. Dew Point Humidity Pressure Visibility Wind Dir Wind Speed Gust Speed Precip Events Conditions
12:56 AM 55.0 °F 50.9 °F 86% 30.03 in 10.0 mi Calm Calm - N/A   Clear
1:56 AM 55.4 °F 52.0 °F 88% 30.02 in 10.0 mi Calm Calm - N/A   Clear
2:56 AM 54.3 °F 51.1 °F 89% 30.01 in 10.0 mi Calm Calm - N/A   Clear
3:56 AM 54.5 °F 52.0 °F 91% 29.99 in 10.0 mi Calm Calm - N/A   Clear
4:56 AM 53.6 °F 51.1 °F 91% 29.98 in 10.0 mi Calm Calm - N/A   Clear
5:56 AM 55.8 °F 53.2 °F 91% 29.99 in 10.0 mi Calm Calm - N/A   Clear
6:56 AM 54.5 °F 52.0 °F 91% 30.00 in 10.0 mi Calm Calm - N/A   Clear
7:56 AM 55.2 °F 52.7 °F 91% 30.02 in 10.0 mi WNW 4.6 mph - N/A   Clear
8:56 AM 60.8 °F 54.9 °F 81% 30.02 in 10.0 mi WNW 5.8 mph - N/A   Clear
9:56 AM 64.0 °F 52.9 °F 67% 30.02 in 10.0 mi Calm Calm - N/A   Clear
10:56 AM 66.2 °F 52.0 °F 60% 30.02 in 10.0 mi South 4.6 mph - N/A   Clear
11:56 AM 69.1 °F 52.2 °F 55% 30.00 in 10.0 mi SSE 4.6 mph - N/A   Clear
12:56 PM 72.7 °F 51.8 °F 48% 29.98 in 10.0 mi SSE 6.9 mph - N/A   Clear
1:56 PM 75.4 °F 52.0 °F 44% 29.96 in 10.0 mi SSE 5.8 mph - N/A   Clear
2:56 PM 76.8 °F 53.2 °F 44% 29.95 in 10.0 mi East 3.5 mph - N/A   Clear
3:56 PM 77.0 °F 54.7 °F 46% 29.95 in 10.0 mi Calm Calm - N/A   Partly Cloudy
4:56 PM 78.8 °F 52.3 °F 40% 29.94 in 10.0 mi SE 4.6 mph - N/A   Partly Cloudy
5:56 PM 75.4 °F 58.6 °F 56% 29.95 in 10.0 mi Calm Calm - N/A   Scattered Clouds
6:56 PM 73.0 °F 58.3 °F 60% 29.96 in 10.0 mi East 3.5 mph - N/A   Mostly Cloudy
7:56 PM 70.3 °F 59.7 °F 69% 29.99 in 10.0 mi Calm Calm - N/A   Overcast
8:56 PM 68.4 °F 60.1 °F 75% 29.99 in 10.0 mi East 3.5 mph - N/A   Mostly Cloudy
9:56 PM 66.7 °F 60.1 °F 79% 30.00 in 10.0 mi Calm Calm - N/A   Partly Cloudy
10:56 PM 66.4 °F 60.3 °F 81% 30.00 in 10.0 mi NE 3.5 mph - N/A   Overcast
11:56 PM 65.8 °F 60.1 °F 82% 30.01 in 10.0 mi Calm Calm - N/A   Overcast